User: anonymous   Login
Location: Pine Mountain Observatory
(43.7910°N, 120.9377°W)
Time: 17:12:05
(UTC-07:00)
Language:

APEX - Orbit

View from above orbital plane
View from above orbital plane
View from above satellite
View from above satellite

Ground track
Ground track

The orbit data is extracted from the following two-line orbital elements,

1 23191U 94046A   17289.54306471 +.00006825 +00000-0 +23286-3 0  9991
2 23191 069.9211 298.1890 0592327 076.9683 289.6858 14.39925995133975
Epoch (UTC): 16 October 2017 13:02:00
Eccentricity: 0.0592327
inclination: 69.9211°
perigee height: 336 km
apogee height: 1181 km
right ascension of ascending node: 298.1890°
argument of perigee: 76.9683°
revolutions per day: 14.39925995
mean anomaly at epoch: 289.6858°
orbit number at epoch: 13397

The dashed part of the orbit path shows where the satellite is in the earth's shadow,  

DLR